This demonstration page uses our WeatherBlox Daily Observations layout. Learn more.

Hourly Observations for December 1, 2017

Temp ( °F °C ) Dew Point ( °F °C ) Humidity (%) Winds ( mph kmh ) Pressure ( in mb ) Visibility ( mi km ) Precip ( " mm )
12:53 am 00:53 Mostly Cloudy with Freezing Fog 31 -0.6 31 -0.6 100 100 Calm 30.23 1024 0.25 0.402335 0 0
1:53 am 01:53 Mostly Cloudy with Freezing Fog 29 -1.7 28 -2.2 96 96 Calm 30.23 1024 0.5 0.80467 0 0
2:10 am 02:10 Mostly Cloudy with Mist and Fog 29 -1.7 28 -2.2 96 96 Calm 30.24 1024 1.25 2.011675 0 0
2:18 am 02:18 Mostly Cloudy with Freezing Fog 27 -2.8 27 -2.8 100 100 Calm 30.24 1024 0.5 0.80467 0 0
2:53 am 02:53 Mostly Cloudy with Freezing Fog 28 -2.2 27 -2.8 96 96 Calm 30.25 1024 0.25 0.402335 0 0
3:53 am 03:53 Mostly Cloudy with Freezing Fog 27 -2.8 26 -3.3 96 96 Calm 30.25 1025 0.25 0.402335 0 0
4:53 am 04:53 Mostly Cloudy with Freezing Fog 26 -3.3 25 -3.9 96 96 Calm 30.25 1025 0.25 0.402335 0 0
5:53 am 05:53 Mostly Cloudy with Freezing Fog 25 -3.9 24 -4.4 96 96 Calm 30.26 1025 0.5 0.80467 0 0
6:02 am 06:02 Mostly Cloudy with Mist and Fog 25 -3.9 24 -4.4 96 96 Calm 30.27 1025 1.75 2.816345 0 0
6:04 am 06:04 Mostly Cloudy with Mist and Fog 25 -3.9 24 -4.4 96 96 Calm 30.27 1025 3 4.82802 0 0
6:14 am 06:14 Mostly Cloudy with Mist and Fog 25 -3.9 24 -4.4 96 96 Calm 30.27 1025 1.75 2.816345 0 0
6:21 am 06:21 Mostly Clear with Mist and Fog 25 -3.9 24 -4.4 96 96 Calm 30.27 1025 2 3.21868 0 0
6:29 am 06:29 Partly Cloudy with Mist and Fog 25 -3.9 23 -5 92 92 Calm 30.27 1025 6 9.65604 0 0
6:38 am 06:38 Mostly Cloudy 24 -4.4 22 -5.6 91 91 Calm 30.3 1026 7 11.26538 0 0
6:53 am 06:53 Mostly Cloudy 25 -3.9 23 -5 92 92 Calm 30.28 1026 7 11.26538 0 0
7:29 am 07:29 Cloudy with Mist and Fog 25 -3.9 23 -5 92 92 Calm 30.3 1026 1.5 2.41401 0 0
7:38 am 07:38 Mostly Cloudy with Freezing Fog 24 -4.4 23 -5 96 96 Calm 30.3 1026 0.25 0.402335 0 0
7:53 am 07:53 Mostly Cloudy with Freezing Fog 24 -4.4 23 -5 96 96 Calm 30.31 1026 0.25 0.402335 0 0
8:20 am 08:20 Mostly Cloudy with Mist and Fog 25 -3.9 24 -4.4 96 96 Calm 30.33 1027 1.75 2.816345 0 0
8:25 am 08:25 Mostly Cloudy with Mist and Fog 26 -3.3 25 -3.9 96 96 Calm 30.33 1027 0.75 1.207005 0 0
8:32 am 08:32 Partly Cloudy with Mist and Fog 27 -2.8 26 -3.3 96 96 Calm 30.33 1027 1.25 2.011675 0 0
8:34 am 08:34 Partly Cloudy with Mist and Fog 27 -2.8 26 -3.3 96 96 Calm 30.33 1027 2.5 4.02335 0 0
8:48 am 08:48 Sunny with Mist and Fog 28 -2 28 -2 100 100 Calm 30.33 1027 4 6.43736 0 0
8:53 am 08:53 Sunny with Mist and Fog 29 -1.7 29 -1.7 100 100 Calm 30.32 1027 4 6.43736 0 0
9:53 am 09:53 Sunny with Mist and Fog 33 0.6 33 0.6 100 100 Calm 30.32 1027 3 4.82802 0 0
10:53 am 10:53 Sunny 38 3.3 37 2.8 97 97 Calm 30.32 1027 10 16.0934 0 0
11:53 am 11:53 Sunny 45 7.2 37 2.8 74 74 Calm 30.3 1026 10 16.0934 0 0
12:53 pm 12:53 Sunny 50 10 36 2.2 59 59 ESE 3 6 30.27 1025 10 16.0934 0 0
1:53 pm 13:53 Sunny 52 11.1 36 2.2 55 55 W 5 7 30.26 1025 10 16.0934 0 0
2:53 pm 14:53 Sunny 52 11.1 36 2.2 55 55 NW 3 6 30.26 1025 10 16.0934 0 0
3:53 pm 15:53 Sunny 53 11.7 33 0.6 47 47 Calm 30.25 1024 10 16.0934 0 0
4:53 pm 16:53 Sunny 49 9.4 33 0.6 55 55 Calm 30.25 1024 10 16.0934 0 0
5:53 pm 17:53 Clear 38 3.3 32 0 79 79 Calm 30.25 1025 10 16.0934 0 0
6:53 pm 18:53 Clear 35 1.7 32 0 89 89 ESE 3 6 30.26 1025 10 16.0934 0 0
6:58 pm 18:58 Clear with Mist and Fog 38 3.3 37 2.8 97 97 WNW 5 7 30.12 1020 2.5 4.02335 0 0
7:53 pm 19:53 Clear 32 0 30 -1.1 92 92 Calm 30.27 1025 10 16.0934 0 0
8:53 pm 20:53 Clear 31 -0.6 29 -1.7 92 92 Calm 30.27 1025 10 16.0934 0 0
9:53 pm 21:53 Clear 30 -1.1 28 -2.2 92 92 Calm 30.26 1025 9 14.48406 0 0
10:53 pm 22:53 Clear 28 -2.2 27 -2.8 96 96 Calm 30.25 1024 10 16.0934 0 0
11:53 pm 23:53 Clear 27 -2.8 25 -3.9 92 92 Calm 30.24 1024 7 11.26538 0 0

Powered by AerisWeather